Info: BCA BNI BRI MANDIRI CIMB ONLINE..- Hadir Game Baru! SUPER10! Mainkan sekarang di semua Internet Browser, Android dan IOS! HARAP SELALU MELIHAT REKENING AKTIF DI MENU DEPOSIT SEBELUM TRANSFER DANA..LINK ALTERNATIF WWW.PK88ONLINE.CLUB
REGISTER JACKPOT DEPOSIT REFERRAL DOWNLOAD PROMOSI CONTACT VIP
JACKPOT



   

Jackpot Winner Texas Poker
Kini Telah hadir Jackpot SUPER ROYAL FLUSH
Kini Telah hadir Jackpot 2000 (khusus table VIP keatas).

Ikutilah global jackpot yang tersedia di system kami, dengan system jackpot terbaru dan pertama di indonesia, anda dapat membeli jackpot dengan harga 100 rupiah saja dan menangkan hadiahnya hingga puluhan juta rupiah.

Jackpot bukanlah suatu keharusan untuk dibeli, namun kami memberikan suatu fitur tambahan untuk member tercinta dari www.pk88qq.com.

Terdapat tiga pilihan harga jackpot yang bisa anda beli yaitu :100,500,1000 dan 2000(khusus table VIP Keatas) rupiah.

Hadiah dari Multi jackpot system www.pk88qq.com

  1. full house x 10 harga jackpot yang anda beli.
      (contoH:anda membeli 1000 maka:1000 X10 = 10.000)
  2. four of kind x 250 harga jackpot yang anda beli
      (contoH:anda membeli 1000 maka:1000 X250 = 250.000)
  3. Straight flush x 1200
      (contoH:anda membeli 1000 maka:1000 X1200 = 1.200.000)
  4. Royal flush x 10000 harga jackpot yang anda beli
      (contoH:anda membeli 1000 maka:1000 X10000 = 10.000.000)
  5. SUPER ROYAL FLUSH x 30000 harga jackpot yang anda beli
      (contoH:anda membeli 1000 maka:1000 X30000 = 30.000.000)

Kondisi kartu

  1. full house adalah kondisi kartu dimana kartu anda dan kartu tengah dengan total 7 kartu bisa mendapatkan nilai 5 kartu dengan kombinasi 1 tris(three of kind) dan 1 pair, contoh 3 kartu 10 dan 2 kartu 5
  2. Four of kind adalah kondisi kartu dimana kartu anda dan kartu tengah dengan total 7 kartu bisa mendapatkan nilai 5 kartu dengan kombinasi 4 kartu yang sama jumlah dan 1 kartu apapun juga contoh anda mendapatkan 4 buah kartu angka 3 dan 1 kartu apapun.
  3. Straight flush adalah kondisi kartu dimana kartu anda dan kartu tengah dengan total 7 kartu bisa mendapatkan nilai 5 kartu dengan kombinasi seri / staright dengan kembang yang sama contoh : urutan kartu dari angka 5, 6, 7, 8 , 9 10 dengan kembang yg sama misalnya as hati
  4. Royal flush adalah kondisi kartu dimana kartu anda dan kartu tengah dengan total 7 kartu bisa mendapatkan nilai 5 kartu dengan kombinasi seri / staright dengan kembang yang sama tetapi kartu tersebut haruslah dimulai dari 10. contoh 10, Queen, Jack, King dan aces dengan kembang yang sama
  5. Super Royal flush adalah kondisi kartu dimana Kedua kartu anda digabung dengan 3 kartu pertama meja haruslah royal flush. contoh kartu anda10,Queen dan 3 kartu pertama meja adalah Jack, King dan aces dengan kembang yang sama

Demikian adalah penjelasan dari Multi Jackpot www.pk88qq.com terima kasih dan selamat bermain salam hoki dari kami


Jackpot Winner

TOP SUPER ROYAL FLUSH
No. Tanggal Nama Price Win
1 25/05 04:52 SONGONG21 Super Royal flush 15,000,000
2 25/05 03:00 WAMBE88 Super Royal flush 15,000,000
3 25/05 01:42 NUVO199 Super Royal flush 15,000,000
4 25/05 01:25 COPYWHIT3 Super Royal flush 6,000,000
5 25/05 00:47 D0LPI3ND Super Royal flush 15,000,000
TOP ROYAL FLUSH
No. Tanggal Nama Price Win
1 25/05 07:45 HEN_321 Royal flush 10,000,000
2 25/05 07:45 BAKOK420 Royal flush 10,000,000
3 25/05 07:32 INTERVI Royal flush 10,000,000
4 25/05 07:06 KP8899HKXV Royal flush 5,000,000
5 25/05 06:23 DIFA2007 Royal flush 5,000,000
TOP STRAIGHT FLUSH
No. Tanggal Nama Price Win
1 25/05 07:49 JPNDRSU10J Straight Flush 120,000
2 25/05 07:47 JIHAN012 Straight Flush 240,000
3 25/05 07:44 BANGSENG03 Straight Flush 240,000
4 25/05 07:38 GHOSAH Straight Flush 2,400,000
5 25/05 07:35 TEMPIK01 Straight Flush 240,000
LATEST JACKPOT
No. Tanggal Nama Price Win
1 25/05 07:52 TYIIHH47CA Full House 1,000
2 25/05 07:52 ULHAQ99 Full House 5,000
3 25/05 07:52 VIJAY363 Full House 10,000
4 25/05 07:52 JAMPOK09 Full House 500
5 25/05 07:52 AGAF144 Full House 10,000
6 25/05 07:52 IDNICECARD Full House 10,000
7 25/05 07:52 BTI543 Full House 2,000
8 25/05 07:52 KAMBUY99 Full House 1,000
9 25/05 07:52 FREEDRX Four Of A Kind 125,000
10 25/05 07:52 ALDOVITTO8 Full House 5,000
11 25/05 07:52 MATEU Full House 10,000
12 25/05 07:52 KUMENGERTI Full House 10,000
13 25/05 07:52 POL29 Full House 1,000
14 25/05 07:51 JADOEK99 Full House 5,000
15 25/05 07:51 HOKY01022 Full House 1,000
16 25/05 07:51 AFC228A6 Full House 2,000
17 25/05 07:51 ASIMO12 Full House 20,000
18 25/05 07:51 POYOTOMB Full House 2,000
19 25/05 07:51 MHI6497 Full House 2,000
20 25/05 07:51 PONGSE99 Full House 5,000
21 25/05 07:51 DIKU333 Full House 20,000
22 25/05 07:51 BERLIANA88 Full House 10,000
23 25/05 07:51 GOPROK Full House 1,000
24 25/05 07:51 A05F0F55 Full House 5,000
25 25/05 07:51 KURSI06 Full House 2,000
26 25/05 07:51 WILL8 Full House 5,000
27 25/05 07:51 A88IS Full House 5,000
28 25/05 07:51 T4DZZXXCC12 Full House 5,000
29 25/05 07:51 EVD3 Full House 1,000
30 25/05 07:51 AMIM32 Full House 5,000
31 25/05 07:51 JATT88 Full House 1,000
32 25/05 07:51 KAMBUY99 Full House 1,000
33 25/05 07:51 TUANMADA Full House 5,000
34 25/05 07:51 SANTAI_SAA Full House 1,000
35 25/05 07:51 KITC4T Full House 5,000
36 25/05 07:51 PRIYOXAVI Four Of A Kind 250,000
37 25/05 07:51 DAYATFIT13 Full House 2,000
38 25/05 07:51 CAUSOT12 Full House 2,000
39 25/05 07:51 JEMUJAE12 Full House 20,000
40 25/05 07:51 CICKEN77 Full House 5,000
41 25/05 07:51 RIRIS044 Full House 5,000
42 25/05 07:51 SOSOLAN88 Full House 1,000
43 25/05 07:51 KENZIE2727 Full House 500
44 25/05 07:50 AEBA2502 Full House 1,000
45 25/05 07:50 E3708262 Four Of A Kind 125,000
46 25/05 07:50 HAYAT01 Full House 2,000
47 25/05 07:50 T0M801 Full House 5,000
48 25/05 07:50 GOPROK Full House 1,000
49 25/05 07:50 ZHAMES Full House 1,000
50 25/05 07:50 JCJXOMMDAF Full House 20,000
Dewa.FM